Weather in Tulcea

Romania     45°10′40″N   28°47′02″E
temp.,
°C
wind,
m/s
gust,
m/s
humid.,
%
clouds,
%
prec.,
mm/h
press.,
hPa
HPBL,
m
9 march, tue
tue923:00+4sse11410 0.0 101722
02:00+2nne6117722 0.0 1018518
05:00+1n367617 0.0 1019198
08:00+2nne475930 0.0 1021474
11:00+5nne444210 0.0 10221040
14:00+6nne22347 0.0 10221528
17:00+6n22360 0.0 10211212
20:00+3s466129 0.0 1023323
10 march, wed
wed1023:00+2sse3664100 0.0 1023238
02:00+2ese3565100 0.0 1023155
05:00+1e3862100 0.0 1022313
08:00+2e5959100 0.0 1023718
11:00+5ese6852100 0.0 10221256
14:00+5e7849100 0.0 10221204
17:00+3e6757100 0.0 10201053
20:00+2ene5870100 0.0 1021626
11 march, thu
thu1123:00+2ene5865100 0.0 1022680
02:00+2ene4861100 0.0 1023641
05:00+1ene4865100 0.0 1022695
08:00+1ne5857100 0.0 1024772
11:00+3ne5649100 0.0 10251091
14:00+5ene554182 0.0 10251343
17:00+3ene55460 0.0 10241015
20:00+1e46630 0.0 1026522
12 march, fri
fri1223:000ese126727 0.0 102746
02:000se237149 0.0 102749
05:000sse237266 0.0 102658
08:00+2sse476444 0.0 1026463
11:00+6s78524 0.0 10261248
14:00+7s795234 0.0 10241434
17:00+7s8105498 0.0 10221327
20:00+6s8126399 0.0 1022657
13 march, sat
sat1323:00+5s71272100 0.0 1022561
02:00+4s61178100 0.0 1022525
05:00+5s61178100 0.0 1022516
08:00+5s71176100 0.0 1022702
11:00+8sse81062100 0.0 1022924
14:00+8sse7957100 0.0 1021929
17:00+7sse6961100 0.0 1019731
20:00+6sse51076100 0.0 1020541